Regional Weather Roundup
Issued by NWS

Home | Current Version | Previous Version | Text Only | Print | Product List | Glossary Off
Versions: 1 2 3 4 5 6 7 8 9 10 11 12 13 14 15 16 17 18 19 20 21 22 23 24 25 26 27

000
ASUS45 KBOU 180910
RWRCO

WEATHER ROUNDUP FOR COLORADO
NATIONAL WEATHER SERVICE DENVER/BOULDER CO
200 AM MST SAT NOV 18 2017

NOTE: "FAIR" INDICATES FEW OR NO CLOUDS BELOW 12000 FEET WITH NO
SIGNIFICANT WEATHER AND/OR OBSTRUCTIONS TO VISIBILITY.

COZ001>005-013-030-031-181000-
...NORTHWEST COLORADO...

CITY           SKY/WX    TMP DP  RH WIND       PRES   REMARKS
CRAIG          MOCLDY    17  13  84 W3        30.26R
HAYDEN         FAIR      18  15  88 W9        30.24R WCI   7
MEEKER         FAIR      18  12  77 MISG      30.26R
RABBIT EARS PA CLOUDY    10   7  85 MISG      30.04F
STEAMBOAT SPGS CLOUDY    20  15  83 W8        30.20R WCI  10
WALDEN         FAIR      14   9  79 W8        30.11R WCI   3
$$

COZ006>008-011-181000-
...WEST CENTRAL VALLEYS...

CITY           SKY/WX    TMP DP  RH WIND       PRES   REMARKS
GRAND JUNCTION FAIR      26  20  77 N3        30.28R
MONTROSE       FAIR      30  20  66 N5        30.29R WCI  25
EAGLE          FAIR      26  15  63 W5        30.25R WCI  20
RIFLE          FAIR      27  20  75 CALM      30.28R
DELTA          FAIR      35  20  54 NW7       30.26R WCI  29
NUCLA          FAIR      32  14  47 CALM      30.28R
$$

COZ017>023-064>068-181000-
...SOUTHWEST COLORADO...

CITY           SKY/WX    TMP DP  RH WIND       PRES   REMARKS
DURANGO        FAIR      31  15  52 NW10      30.11R WCI  22
CORTEZ         FAIR      31  17  56 NW9       30.22R WCI  23
PAGOSA SPRINGS FAIR      32  11  41 W9G21     30.07R WCI  25
TELLURIDE      NOT AVBL
WOLF CREEK PAS   N/A      9   7  92 W12G23    30.09R WCI  -6
$$

COZ009-010-012-014-032>034-037-058>063-181000-
...CENTRAL COLORADO...

CITY           SKY/WX    TMP DP  RH WIND       PRES   REMARKS
ASPEN          CLOUDY    23  11  60 N12G21    30.20R WCI  12
BUENA VISTA    FAIR      24  11  59 NW22G35   30.06R WCI   8
COPPER MTN     CLOUDY    10   3  72 MISG      29.98R
BERTHOUD PASS  HVY SNOW   1  -9  60 MISG      29.84R VSB<1/4
COTTONWOOD PAS FAIR      23  10  58 W7G26     30.03R WCI  15
GUNNISON       FAIR      23  17  78 VRB3      30.18R
KREMMLING      FAIR      28  14  54 W15G21    30.16R WCI  17
LEADVILLE      LGT SNOW  12   6  77 N9        30.06R WCI   0
MONARCH PASS     N/A      9   5  85 MISG      30.10R
SALIDA         FAIR      27  18  69 SW3       30.16R
SUNLIGHT       CLOUDY   N/A N/A N/A MISG      30.20R
WILKERSON PASS   N/A     10   3  72 NW14G29   30.00R WCI  -5
$$

COZ069>075-181000-
...SAN LUIS VALLEY/SANGRE DE CRISTO MOUNTAINS...

CITY           SKY/WX    TMP DP  RH WIND       PRES   REMARKS
ALAMOSA        CLOUDY    30   9  41 NW25G38   30.02R WCI  16
DEL NORTE      FAIR      27   6  41 SW9       30.06R WCI  17
LA VETA PASS   LGT SNOW  23  19  86 W6G16       N/A  WCI  16
SAGUACHE       FAIR      27  16  63 N20G33    30.07R WCI  13
$$

COZ035-036-038>040-181000-
...NORTHERN COLORADO FRONT RANGE...

CITY           SKY/WX    TMP DP  RH WIND       PRES   REMARKS
DENVER INTL AP MOCLDY    31  24  75 N29G36    30.06R WCI  16
DMNS CITY PARK   N/A     32  23  69 N5G28     30.08R WCI  27
AURORA         MOCLDY    29  25  84 N22G30    30.06R WCI  16
FRONT RANGE AP FAIR      32  28  84 N22G30    30.06R WCI  20
ERIE MUNI ARPT MOCLDY    33  23  66 N13G22    30.13R WCI  24
BOULDER MUN AP FAIR      32  23  69 N13       30.07R WCI  22
CENTENNIAL     MOCLDY    33  16  49 NW21      30.05R WCI  21
BROOMFIELD     MOCLDY    34  21  60 N17G29    30.07R WCI  23
FORT COLLINS   CLOUDY    32  22  66 N13       30.09R WCI  22
LONGMONT       NOT AVBL
$$

COZ041-046-047-076>085-087-088-181000-
...PIKES PEAK/PALMER DIVIDE AND SOUTHERN FOOTHILLS...

CITY           SKY/WX    TMP DP  RH WIND       PRES   REMARKS
COLO. SPRINGS  FAIR      33  19  56 N22       30.03R WCI  21
A. F. ACADEMY  FAIR      27  20  76 N6        30.02R WCI  20
SCHRIEVER AFB  FAIR      32  14  46 N28G37    29.99R WCI  18
CHEYENNE MTN   FAIR      29  16  58 N10G24    29.94R WCI  19
ELLICOTT       NOT AVBL
FALCON         FAIR      28  13  52 NW18G35   30.00R WCI  16
FORT CARSON    FAIR      36  14  40 N28G45    29.97R
LIMON          MOCLDY    32  29  88 N28G36    29.97R WCI  18
MONUMENT HILL  FAIR      25  12  58 NW23G31   30.02R WCI  10
CANON CITY     MOCLDY    39  18  41 W21G32    30.01R
WALSENBURG     CLOUDY    34  34 100 S6        29.98R WCI  29
TRINIDAD       LGT SNOW  33  33 100 S3        30.00R FOG
$$

COZ042>045-048>051-090-091-181000-
...NORTHEAST COLORADO...

CITY           SKY/WX    TMP DP  RH WIND       PRES   REMARKS
GREELEY ARPT   FAIR      33  24  69 NW22      30.07R WCI  21
AKRON          CLOUDY    33  27  78 NW24G32   29.97R WCI  20
BURLINGTON     CLOUDY    38  32  79 NW28G40   29.90R
WRAY           NOT AVBL
YUMA           PTSUNNY   34  30  86 NW21G28   29.96R WCI  22
STERLING       CLOUDY    36  30  80 N25G32    29.97R
HOLYOKE        MOCLDY    41  34  75 NW24      29.93R
FORT MORGAN    CLOUDY    34  24  66 NW28G38   30.04R WCI  21
$$

COZ086-089-092>099-181000-
...SOUTHEAST COLORADO...

CITY           SKY/WX    TMP DP  RH WIND       PRES   REMARKS
PUEBLO         CLOUDY    39  36  89 SW9       29.99R
LA JUNTA       CLOUDY    40  35  83 NW6       29.97R
LAMAR          CLOUDY    43  31  62 N21G31    29.92R
SPRINGFIELD      N/A     36  35  96 N29G43    29.93R
$$




USA.gov is the U.S. government's official web portal to all federal, state and local government web resources and services.